Temp
9 9 9 9 9 9 9 9 9 10 12 14 16 15 15 14 14 14 14 14 16 16 16 17 17 17 16 16 16 16 16 15 15 17 18 23 24 23 24 24 23 22 22 23 24 25 25 26 26 27 27 27 28 28 28 28 27 26 26 26 26 26 26 27 29 27 27 28 26 26 28 27 27 27 28 29 29 29 29 29 30 30 30 30 29 28 27 27
9 9 9 9 9 9 9 9 10 10 12 14 15 15 15 15 15 15 14 14 15 16 16 17 17 17 16 15 16 16 15 15 17 19 21 24 24 23 24 23 23 23 23 25 25 26 27 27 27 27 28 28 28 28 28 28 27 25 27 27 26 28 29 29 29 26 27 28 26 26 28 27 27 27 28 29 28 29 29 28 29 29 29 29 28 28 27 27
9 9 9 9 9 9 9 9 10 11 13 14 14 14 14 14 14 15 15 14 15 16 16 17 17 17 17 16 16 16 15 16 20 23 24 25 23 24 23 23 24 23 24 25 26 27 28 27 27 28 28 28 28 28 27 27 28 27 27 26 27 29 30 29 29 27 27 28 27 26 27 28 27 28 28 29 29 29 29 29 29 29 28 28 28 28 27 27
9 9 9 9 9 9 9 10 11 13 14 14 14 14 14 14 14 15 15 15 15 16 16 17 17 17 17 16 16 15 15 20 25 26 25 25 24 24 23 23 23 23 25 26 27 28 28 28 28 28 29 29 28 28 28 28 28 28 27 26 28 30 30 29 29 28 27 28 28 27 27 27 27 28 28 29 29 29 30 30 30 29 28 28 28 28 28 28
9 9 9 9 9 9 9 10 12 13 15 15 14 15 15 15 14 15 15 15 15 16 16 17 17 16 16 17 16 14 17 23 28 26 24 24 24 23 23 23 23 24 25 26 27 28 28 28 28 28 29 29 28 27 28 28 28 28 29 29 30 30 30 30 29 28 28 28 28 27 27 26 27 28 28 29 30 29 31 31 31 30 29 28 28 28 28 28
9 9 9 9 9 9 9 11 12 14 15 15 15 16 16 16 15 15 16 16 15 16 16 17 17 16 16 17 15 14 19 26 27 25 24 24 23 23 23 22 23 24 26 26 27 28 28 28 28 28 29 30 29 28 28 29 28 29 30 30 31 31 30 31 30 28 28 27 26 27 27 26 26 27 28 29 29 29 31 31 31 30 29 29 29 29 28 28
9 9 9 9 9 9 10 12 13 14 14 14 15 16 16 16 16 16 16 16 16 16 17 17 16 16 16 16 15 16 22 27 26 24 24 24 23 23 23 22 22 24 26 27 28 28 28 28 28 28 29 29 29 29 29 29 29 29 30 31 31 31 31 31 31 29 28 27 26 26 27 26 26 27 28 28 28 29 30 31 31 31 30 29 29 28 29 29
9 9 9 9 9 9 11 13 14 14 14 14 15 16 16 17 17 17 17 17 16 16 17 17 16 16 16 16 18 22 26 27 24 23 24 23 23 23 22 22 23 25 27 28 28 28 28 28 28 29 29 29 29 30 29 29 29 29 30 31 31 31 32 32 31 30 29 27 26 26 27 26 26 27 28 28 28 29 30 30 31 30 30 29 29 29 29 29
9 9 9 9 9 10 11 13 14 14 14 15 16 16 16 17 17 17 17 17 17 17 17 17 17 17 15 16 20 26 27 26 23 23 23 23 22 22 22 23 24 26 27 28 28 28 28 28 29 30 30 30 30 30 30 29 29 30 30 31 31 32 32 32 31 30 29 27 27 27 27 27 27 27 27 28 28 29 30 30 30 30 29 29 29 29 29 28
9 9 9 9 10 11 12 14 14 13 14 15 16 16 16 17 18 18 18 17 17 18 17 17 17 16 15 17 22 27 26 24 23 23 23 22 22 22 23 24 25 26 28 28 29 29 29 29 30 30 30 30 30 30 30 29 30 30 31 31 31 31 31 32 31 30 29 28 27 27 27 26 27 27 27 28 28 29 30 30 30 29 29 29 29 29 29 29
9 9 8 9 11 12 13 14 13 13 14 15 16 17 17 17 18 19 19 18 18 19 18 17 17 16 16 19 24 27 25 23 24 23 23 23 23 23 24 25 25 27 28 28 29 29 29 30 31 30 29 30 30 30 30 30 30 31 31 32 31 31 31 31 31 30 29 28 27 27 26 25 26 27 27 28 28 29 29 29 30 29 29 29 29 29 29 29
9 9 9 11 12 13 13 13 13 14 15 16 16 17 18 18 19 19 20 19 19 19 18 18 17 16 17 21 24 26 24 24 24 23 23 23 24 25 25 25 26 27 28 29 29 29 29 30 30 29 29 30 30 29 30 30 31 31 31 32 31 30 30 30 30 30 29 29 28 27 25 25 26 26 28 29 28 29 29 29 30 29 30 29 29 29 29 29
9 9 10 12 13 13 13 13 14 14 15 16 16 17 18 19 19 20 20 20 20 19 18 18 17 15 18 23 26 25 24 24 24 23 24 24 25 25 25 25 26 27 28 28 29 28 28 29 29 29 29 29 30 30 30 31 31 31 32 32 31 30 29 29 29 30 30 29 29 27 24 25 27 27 29 29 28 28 29 29 30 30 30 29 29 29 28 29
9 9 11 12 13 14 13 13 14 15 16 17 16 17 18 19 19 20 20 20 20 19 19 18 16 16 19 25 25 24 24 24 23 24 24 24 25 25 25 25 25 26 27 28 28 28 28 29 29 29 29 30 30 30 30 31 31 32 32 31 31 27 26 29 29 29 30 28 29 28 24 25 28 28 28 29 28 29 29 30 30 30 30 29 29 29 29 29
9 10 11 12 13 14 14 13 15 16 16 17 16 17 18 19 20 20 20 20 19 19 18 17 16 17 22 26 25 24 23 24 24 25 25 25 25 25 25 25 25 26 26 27 27 27 27 28 28 29 29 29 30 29 30 31 31 32 29 27 30 27 25 29 29 29 30 28 29 28 25 26 29 29 28 28 28 29 29 30 30 30 30 29 29 29 29 29
11 11 11 12 13 14 14 14 15 16 17 17 16 17 18 18 19 20 20 19 19 18 17 18 17 19 24 26 24 23 24 25 26 25 25 26 26 26 25 25 25 26 26 26 27 27 27 28 29 29 29 29 29 30 30 29 28 32 29 24 27 27 25 28 29 30 30 28 29 28 26 27 29 29 28 28 28 28 29 30 30 30 30 30 29 29 30 29
12 12 12 12 13 14 14 15 15 16 17 17 17 17 18 17 18 19 19 18 18 17 17 20 20 20 23 25 24 24 26 26 26 25 25 25 26 26 26 26 26 26 26 26 26 27 27 28 28 29 29 29 30 30 27 24 23 28 29 27 27 28 26 26 27 30 30 29 29 28 28 27 27 29 29 28 28 28 29 30 30 30 30 30 29 29 30 29
12 12 12 12 13 14 14 15 15 16 17 17 17 17 17 17 17 17 18 17 16 17 17 19 21 22 24 25 26 27 27 26 25 25 25 25 26 26 26 26 26 26 26 26 26 27 27 28 29 28 29 29 30 30 25 23 25 25 26 26 26 28 28 26 27 30 30 29 29 27 27 27 26 28 29 29 28 28 29 30 30 30 30 30 30 30 30 29
11 12 13 13 13 13 14 14 15 16 17 17 17 17 17 17 17 18 18 18 19 21 22 22 22 24 25 26 27 27 27 26 25 25 25 25 26 26 26 26 26 26 26 26 26 27 27 28 28 27 28 28 30 30 28 28 30 29 29 28 27 26 28 29 30 30 30 30 28 26 26 27 26 27 29 29 29 29 29 30 29 29 30 30 29 30 30 29
11 12 13 13 13 13 14 15 15 16 17 17 16 17 19 20 21 21 20 20 22 24 25 25 25 25 26 27 27 27 26 26 26 26 26 26 26 27 27 26 26 26 27 27 27 27 28 27 27 27 28 30 30 31 31 31 31 31 31 29 29 27 27 31 32 31 31 30 29 28 28 29 28 28 29 29 29 29 29 30 29 29 29 30 30 29 29 30
13 13 14 14 14 15 15 15 16 16 18 17 16 19 23 23 23 23 22 23 25 26 25 25 26 26 26 27 27 27 27 27 27 27 26 26 27 27 26 26 26 26 27 28 27 28 28 26 27 29 30 31 30 30 30 30 30 31 30 29 28 28 28 31 32 31 32 30 30 31 30 30 29 28 28 28 28 29 30 30 29 29 29 30 30 30 29 30
13 13 14 14 15 16 15 16 17 17 18 17 17 22 24 23 22 21 22 24 25 25 25 25 25 25 26 26 26 26 27 28 27 27 26 27 28 27 26 27 27 27 28 28 28 27 26 27 29 30 30 30 30 30 29 30 31 30 30 28 27 29 30 30 32 32 32 30 31 32 31 30 30 27 27 28 29 29 30 30 29 29 30 30 30 30 30 30
12 13 14 15 15 16 16 17 17 18 18 18 20 23 23 21 20 20 21 23 25 25 25 25 25 26 27 27 26 26 27 28 27 26 27 27 28 28 27 27 27 28 28 28 28 25 24 27 30 30 29 29 29 29 29 29 30 30 30 27 26 29 29 27 29 32 32 31 32 32 31 31 30 27 27 29 29 29 30 30 29 29 29 30 30 30 30 30
13 14 15 16 16 16 17 17 17 18 18 19 22 22 21 20 20 21 22 24 24 25 25 25 26 26 27 27 26 26 28 29 28 27 27 27 28 28 28 28 28 28 28 28 29 27 27 29 31 29 29 29 29 29 29 29 28 30 31 28 27 30 29 28 30 31 31 31 32 31 28 28 30 28 28 29 29 29 29 30 29 29 29 29 30 30 30 30
14 15 16 17 17 17 17 17 18 18 19 20 22 21 20 20 20 21 22 24 24 25 25 25 26 26 26 26 26 27 29 28 28 28 28 29 29 28 28 29 28 28 28 28 29 29 29 30 30 29 29 29 29 29 29 29 27 27 30 31 30 31 31 31 31 30 27 26 30 30 24 24 29 29 28 28 28 29 29 29 29 28 28 29 30 30 30 30
15 16 17 17 18 17 17 19 19 19 20 22 22 20 20 20 20 20 22 23 23 24 25 25 25 25 26 27 27 28 28 27 28 29 29 28 29 29 28 28 29 28 28 29 29 29 29 29 29 29 29 29 29 29 30 30 27 25 29 32 31 32 31 30 30 28 24 24 30 32 24 22 26 28 28 28 28 29 29 29 29 28 28 29 30 30 30 30
16 17 17 18 19 18 18 20 19 19 22 22 21 20 20 20 21 21 22 22 22 24 25 25 25 25 25 27 28 27 26 26 27 28 28 28 28 29 28 28 28 28 29 29 26 28 29 29 28 29 29 28 28 28 30 31 27 26 30 32 31 32 31 31 30 27 26 27 29 31 28 23 23 25 29 29 28 29 29 29 29 29 29 29 30 30 31 31
17 18 18 19 19 18 19 19 19 21 22 21 20 20 20 21 21 22 22 21 22 25 26 25 25 25 26 27 28 27 27 27 27 27 28 28 27 29 28 28 28 28 29 28 24 27 29 28 28 29 28 28 28 29 31 30 28 29 31 31 31 32 31 32 30 27 29 27 24 27 29 24 21 25 30 30 28 28 29 30 29 29 29 29 30 30 31 31
18 19 19 19 19 19 19 19 20 22 21 20 20 20 20 21 22 23 22 20 23 25 25 25 25 25 27 28 27 28 27 27 27 26 28 28 28 29 28 28 29 28 28 28 27 28 29 28 29 29 29 29 29 31 31 30 30 31 31 31 31 32 32 32 30 28 27 25 22 25 27 24 22 25 28 28 27 27 29 30 30 29 30 29 29 29 30 31
19 20 20 19 19 19 19 19 20 21 20 20 21 20 21 22 22 22 21 21 24 25 25 26 26 26 27 27 26 27 27 27 27 27 28 28 28 28 28 28 29 28 28 29 28 28 28 29 29 29 28 28 29 30 30 30 31 31 31 31 30 31 32 31 30 28 24 22 23 25 27 25 22 23 26 26 26 28 29 30 29 30 30 30 29 28 28 29
19 20 20 20 19 19 20 21 21 20 20 20 20 21 22 23 23 21 20 22 24 24 25 25 26 27 27 27 26 26 27 26 27 27 27 28 28 28 27 27 28 27 27 27 27 28 28 28 28 28 27 28 29 29 29 30 31 31 31 30 27 26 27 26 26 26 23 22 24 26 28 26 22 23 26 27 27 29 29 29 29 29 29 30 30 30 30 30
20 21 20 20 19 19 20 22 21 20 20 20 21 23 23 22 22 21 21 23 23 23 25 25 26 27 27 27 26 26 26 26 26 27 27 27 27 27 26 26 27 25 23 24 25 26 27 28 28 27 28 28 28 28 29 29 30 30 30 27 23 23 23 22 22 23 22 23 25 28 28 25 22 24 27 28 28 28 29 29 28 28 28 29 30 30 31 30
20 21 21 20 20 19 19 20 20 20 20 20 21 24 23 21 21 21 23 23 22 24 25 25 26 27 27 26 25 26 26 25 26 26 27 27 27 26 26 26 26 25 23 24 24 23 25 27 28 27 27 28 28 27 26 27 29 29 28 25 22 22 22 22 22 22 22 23 25 28 27 23 22 25 28 29 28 28 29 28 28 28 28 28 29 30 31 31
21 21 21 20 20 20 20 20 20 20 19 21 23 24 22 21 21 22 23 23 23 24 25 26 27 27 26 25 25 26 25 24 26 26 26 27 26 25 26 26 25 26 27 26 24 23 22 23 26 27 26 27 28 27 26 28 29 30 31 29 24 23 23 22 22 22 22 23 24 26 25 23 22 24 28 29 28 28 28 28 28 28 28 29 29 30 30 31
21 21 21 21 20 20 20 20 20 19 20 22 24 23 21 20 21 22 23 23 25 25 25 26 27 26 25 25 25 26 25 24 25 26 26 26 25 24 25 25 24 26 27 24 24 24 22 22 25 27 26 27 27 27 28 28 28 30 32 29 25 26 26 23 23 23 23 23 23 24 24 25 25 27 29 30 29 29 28 28 28 28 28 28 28 29 29 29
21 21 21 22 21 21 20 20 20 19 20 24 24 22 21 21 22 22 23 23 24 25 25 25 26 25 23 24 25 25 26 25 25 25 25 24 24 23 24 24 24 25 25 24 25 24 22 22 26 27 26 27 27 27 28 27 26 28 28 26 26 30 29 24 22 24 24 23 23 23 23 24 26 27 29 29 28 28 28 27 28 27 27 28 28 28 28 28
22 22 23 23 22 21 20 20 19 20 22 25 24 21 22 23 22 23 23 23 23 24 25 24 23 24 22 23 24 25 25 25 25 25 23 23 23 22 23 24 24 24 24 24 25 25 23 22 26 27 26 27 27 27 28 28 28 27 26 26 29 30 29 26 23 23 23 22 23 23 22 22 23 24 27 28 28 27 27 27 27 27 26 27 27 27 27 28
22 23 24 24 22 21 21 20 20 21 24 25 23 21 23 23 22 23 23 23 23 24 25 24 22 23 24 23 23 24 25 24 24 24 23 23 22 21 23 23 24 24 24 24 25 26 25 22 24 27 26 27 28 27 27 28 29 28 27 29 29 25 24 24 23 22 22 22 23 23 22 22 22 23 25 26 26 27 27 27 26 26 26 26 26 25 26 27
22 24 25 24 23 22 22 21 21 24 26 25 22 22 23 23 23 23 23 23 23 24 25 24 24 24 24 24 23 24 25 24 24 24 23 23 22 22 22 22 23 24 24 25 26 26 27 23 22 26 27 27 28 27 25 26 28 29 28 30 29 26 24 24 24 24 23 22 23 22 22 22 22 23 24 24 24 26 26 26 26 25 25 25 25 25 25 26
24 25 24 24 23 23 23 23 24 26 25 23 23 23 23 23 23 23 23 23 23 24 25 25 25 24 24 24 24 24 24 24 24 24 23 23 22 22 22 22 23 24 24 25 26 25 27 25 22 25 27 26 25 25 24 24 26 27 26 26 27 27 26 26 25 25 23 23 23 22 22 22 23 25 24 23 24 25 25 26 25 25 25 24 24 24 24 25
25 25 24 24 23 23 24 24 25 25 24 23 23 23 22 22 23 23 24 24 23 24 24 24 25 25 24 24 24 24 24 24 24 24 23 23 22 22 22 21 21 23 24 25 26 25 25 26 23 23 24 23 22 24 24 24 25 26 26 25 25 26 25 23 23 24 24 23 23 23 22 22 23 24 24 23 24 24 25 25 25 25 24 24 24 24 24 24
25 25 24 24 23 24 25 25 24 24 24 22 22 22 22 22 23 23 23 24 24 24 24 24 23 24 24 24 24 24 24 23 23 23 23 22 22 21 21 21 21 23 24 25 25 24 24 25 24 22 23 23 23 24 24 24 24 26 26 26 27 27 25 22 22 23 23 23 23 23 21 21 23 24 23 23 24 24 25 25 25 25 24 23 23 24 24 24
25 24 24 24 23 25 25 24 23 23 23 22 22 22 22 22 23 23 23 23 24 23 23 23 23 23 23 23 23 24 23 22 22 22 22 21 21 20 21 22 22 23 24 25 24 24 24 24 23 21 22 24 24 24 24 25 25 25 26 26 26 26 25 24 24 24 23 23 23 23 21 21 23 24 23 24 24 24 25 25 25 25 24 24 23 23 23 23
24 24 25 24 24 25 25 23 23 23 22 22 22 22 22 22 22 22 22 22 23 23 23 22 22 23 22 23 23 23 22 22 21 22 22 21 21 20 21 22 22 23 23 23 23 23 23 23 22 21 21 22 22 23 23 24 25 25 25 25 25 26 26 25 25 25 23 22 22 23 22 22 23 24 24 24 24 24 24 24 24 24 23 23 23 23 23 23
24 24 25 25 25 25 24 23 24 23 22 22 22 22 22 21 21 22 22 22 22 23 22 22 22 23 23 23 23 22 23 23 21 21 22 21 21 21 21 22 22 23 22 21 22 23 23 23 22 21 21 21 21 21 21 23 24 24 24 25 25 25 25 25 24 23 22 22 22 22 21 22 23 24 23 24 24 24 24 24 24 24 23 23 23 23 23 22
24 23 24 24 25 24 23 23 24 23 22 22 22 22 22 21 21 22 22 21 22 22 22 22 22 23 23 23 22 22 23 23 22 21 22 21 21 21 21 22 22 21 21 20 22 23 23 22 22 21 21 21 21 21 22 23 23 23 23 24 24 25 25 25 23 22 22 22 22 22 22 22 22 23 23 23 23 23 23 24 24 23 23 23 23 23 23 23
23 22 22 22 23 23 23 23 23 22 22 22 21 21 21 21 21 21 21 21 21 22 22 22 22 22 22 22 22 21 21 22 22 21 21 21 21 21 21 22 22 21 20 21 22 23 23 22 21 21 21 21 21 21 22 23 23 22 22 23 23 24 25 24 23 22 23 22 21 21 23 22 22 23 22 22 22 23 23 23 23 23 23 23 23 23 23 23
22 21 21 20 21 22 22 22 22 22 22 22 21 21 21 21 21 21 21 21 21 22 22 21 21 22 21 22 22 21 21 21 20 20 21 21 21 21 21 21 22 21 21 22 22 23 23 21 21 22 21 21 22 22 22 23 22 22 22 22 23 24 24 23 22 23 23 22 21 22 23 22 22 22 22 21 21 22 22 22 23 23 23 23 23 23 23 23
21 21 21 20 20 21 21 20 21 22 21 21 21 20 21 21 20 20 21 21 21 21 21 20 20 21 21 21 21 20 20 20 20 19 20 20 20 21 21 21 21 22 22 22 22 22 22 21 21 22 21 21 21 21 22 22 22 22 22 22 23 23 23 23 23 24 23 22 22 22 22 22 22 22 21 21 21 21 21 22 23 23 22 22 22 22 22 22
21 21 20 21 21 20 21 21 21 22 21 21 20 20 20 20 20 20 20 21 20 20 21 20 20 21 21 21 21 20 20 20 20 19 20 20 20 21 21 20 21 22 22 22 21 21 21 20 21 22 21 20 21 21 21 22 21 21 22 22 23 23 23 23 23 23 23 22 23 22 21 21 21 21 21 21 21 21 21 21 22 22 22 22 22 22 22 22
19 18 18 21 21 19 20 21 21 21 21 20 20 20 20 20 20 20 20 20 21 20 20 20 20 20 21 20 20 20 20 21 21 20 20 21 20 21 21 20 21 21 21 21 21 21 21 20 20 21 21 20 20 21 21 21 21 21 21 21 22 22 22 22 23 23 23 22 22 22 21 21 20 21 21 21 22 21 20 20 21 21 21 22 22 22 22 21
18 18 18 20 20 19 20 21 20 21 20 19 19 19 19 20 20 20 19 19 20 20 20 20 20 20 20 19 19 19 20 20 21 20 21 21 21 21 21 21 21 21 21 20 20 21 21 21 20 21 20 20 20 21 21 21 21 20 21 22 22 22 22 22 22 22 22 22 22 22 22 21 20 21 22 22 21 21 20 20 20 21 21 21 21 21 21 21
Height
806 805 803 802 800 799 797 796 794 793 792 791 790 789 788 787 786 785 785 783 783 782 781 781 779 779 778 777 777 776 776 775 775 774 772 764 763 764 765 767 768 771 773 776 778 778 779 780 781 780 781 782 781 780 781 780 780 788 795 795 793 792 793 788 785 790 787 786 791 789 785 791 796 792 786 785 788 791 792 792 790 789 789 791 794 799 804 809
806 805 803 801 799 798 796 795 793 792 791 790 789 789 787 786 785 784 784 782 782 781 781 780 779 778 777 777 776 776 775 775 774 771 765 760 761 763 763 766 767 769 772 775 776 775 777 778 778 779 779 781 781 780 783 780 782 793 792 791 795 790 785 781 781 786 785 785 790 789 786 790 794 792 786 791 797 794 797 798 794 796 795 796 798 802 806 809
806 805 802 800 799 797 796 794 793 792 790 790 788 788 786 785 784 783 782 782 781 780 780 779 778 777 777 777 775 775 775 774 771 764 759 758 760 761 762 765 766 769 771 773 774 775 776 776 777 777 778 781 781 781 786 783 781 787 790 796 796 784 778 777 779 782 783 782 787 790 787 789 790 788 787 793 798 796 798 799 798 801 800 800 801 803 807 809
805 803 802 800 798 796 795 793 792 791 790 789 787 787 786 784 783 782 781 781 780 779 779 778 778 777 777 776 775 775 775 773 765 758 757 757 758 760 762 764 766 769 772 773 775 775 775 776 776 775 778 782 782 783 786 784 782 782 788 797 790 779 780 778 778 780 781 781 784 789 789 793 790 787 789 791 797 800 795 792 793 798 799 800 801 802 806 809
804 802 801 799 797 796 794 793 791 790 789 787 787 785 784 783 782 781 780 779 778 778 778 777 777 776 776 776 775 775 775 773 761 755 757 757 757 759 762 764 767 770 773 774 775 775 775 775 775 776 779 781 784 788 787 780 781 784 782 784 779 777 783 778 775 779 780 781 785 789 792 794 790 789 791 789 796 797 789 786 787 790 794 797 799 801 805 808
803 801 800 798 796 795 793 791 790 789 788 786 785 784 783 782 780 779 778 778 777 777 777 777 776 776 776 775 775 775 775 770 759 757 758 757 758 760 762 765 768 771 773 773 774 775 775 774 777 781 780 780 785 788 786 779 779 787 781 776 776 775 780 776 773 779 780 784 790 791 790 791 794 795 791 789 793 790 782 782 784 787 791 795 798 800 804 807
802 800 799 797 795 794 792 790 789 787 786 785 784 782 781 780 779 778 777 776 776 776 776 776 776 775 775 775 775 774 771 764 757 758 759 758 760 761 764 767 769 772 772 772 773 774 774 776 779 781 782 783 785 782 781 780 779 787 784 777 776 774 776 773 772 777 779 786 791 789 789 794 800 798 792 792 793 787 783 782 783 787 791 795 799 801 803 806
801 799 798 796 795 793 791 789 788 786 785 784 782 781 780 778 777 776 775 775 774 775 775 775 775 775 775 776 774 770 764 760 759 760 759 760 762 763 766 768 770 771 771 771 771 772 774 778 778 777 783 783 780 780 779 781 783 785 783 778 775 774 773 770 771 776 780 785 787 788 792 795 797 796 795 795 792 787 784 783 785 789 792 796 799 801 803 807
800 799 796 795 793 792 790 788 787 785 784 782 781 779 778 776 775 774 774 773 773 774 773 774 775 774 775 775 772 767 761 759 760 760 761 762 763 766 768 769 771 770 770 771 770 772 774 777 776 773 779 779 777 780 778 784 786 781 780 777 775 774 771 770 772 775 780 784 786 791 796 795 792 794 797 794 791 788 785 786 788 790 794 797 799 801 803 807
799 797 796 794 792 791 789 787 786 784 782 781 779 777 776 774 773 772 772 772 772 772 773 774 774 774 776 774 771 767 760 759 761 761 763 764 765 767 769 769 770 770 769 771 770 771 772 773 771 770 774 776 777 778 777 783 782 776 777 775 775 776 772 771 774 776 780 784 788 793 798 796 791 795 800 794 789 788 788 790 791 792 796 798 800 801 804 807
798 796 795 793 791 790 788 786 785 783 781 779 778 776 774 772 771 770 769 770 770 771 772 773 774 774 775 773 770 764 759 760 762 763 765 765 766 767 769 769 770 770 769 770 771 770 770 770 768 771 777 776 776 779 777 776 775 774 776 775 775 776 774 773 776 778 781 786 788 791 800 800 795 799 799 791 789 789 791 793 792 794 797 798 800 802 804 807
797 795 794 792 790 788 787 785 783 782 780 778 776 774 772 770 769 768 767 768 769 770 771 772 774 774 774 772 767 761 759 761 762 763 766 766 767 768 769 770 770 770 770 770 771 771 772 771 770 775 777 774 778 783 778 771 773 774 774 778 781 779 780 779 778 779 782 787 786 789 804 806 801 802 793 788 789 790 793 794 793 795 796 798 800 802 805 806
796 794 792 790 788 787 786 784 782 781 779 777 775 772 771 769 767 767 766 767 768 769 771 772 773 774 775 769 761 760 761 762 762 763 766 767 768 769 770 771 772 771 771 771 771 772 773 772 772 774 773 775 778 778 774 770 773 775 773 777 782 784 788 784 780 780 782 785 781 790 810 809 801 798 789 786 790 792 795 795 794 795 796 798 800 803 805 806
795 793 791 789 787 786 784 783 781 779 777 776 773 772 770 767 766 766 766 767 768 769 771 772 774 775 773 764 758 760 761 762 764 764 765 767 768 770 771 772 773 773 773 772 772 774 774 773 773 773 772 774 774 772 774 774 774 775 775 777 780 788 794 787 781 782 786 786 780 790 808 805 797 794 789 787 789 792 796 795 794 795 796 798 799 802 804 805
793 792 790 788 786 785 783 781 780 778 777 775 773 771 769 767 765 765 766 767 768 770 771 773 774 774 769 761 759 761 762 763 764 764 765 766 767 769 771 773 773 774 775 774 774 775 775 774 775 778 776 772 774 778 780 779 776 774 783 789 782 786 796 790 782 781 786 787 781 789 803 802 795 791 789 789 790 793 795 794 793 795 796 798 799 801 803 804
792 790 788 787 785 783 782 780 778 777 775 774 772 771 769 767 766 766 767 768 769 771 772 773 773 773 768 760 759 761 762 762 762 764 765 765 766 768 770 773 774 775 776 775 775 776 776 776 775 775 775 776 779 781 781 783 783 777 783 790 782 786 798 794 784 778 780 786 787 790 800 803 797 791 789 789 791 794 795 794 794 796 796 797 800 801 801 804
790 789 787 785 784 782 780 778 777 775 774 773 772 771 769 768 767 768 769 770 771 772 773 772 771 771 766 759 760 761 759 759 762 764 765 766 766 767 770 772 773 775 775 776 777 776 776 777 777 777 778 778 777 778 787 794 792 784 780 781 779 784 793 797 791 779 777 787 791 793 799 805 801 792 789 789 791 794 795 794 794 795 796 797 799 800 801 803
789 787 785 784 782 780 778 777 776 774 773 773 772 771 770 770 769 770 771 771 772 773 774 772 771 772 767 759 758 757 756 759 761 763 765 766 766 768 770 770 772 774 776 778 778 778 779 778 778 782 783 781 778 781 792 793 786 784 782 780 782 782 782 789 790 781 780 787 793 800 804 805 802 794 790 789 790 794 793 792 793 795 796 797 798 799 800 802
787 785 783 782 780 779 777 776 775 773 772 772 772 772 771 771 771 771 772 772 771 770 770 767 766 767 762 756 753 754 755 759 761 763 764 765 766 767 768 770 771 774 779 781 781 779 779 781 783 786 785 783 781 778 783 782 775 776 777 776 780 782 782 782 781 777 779 787 796 806 806 803 803 798 792 789 788 792 792 791 793 795 795 796 798 799 800 802
785 783 781 779 778 777 775 774 773 772 771 771 772 772 771 769 768 769 769 769 765 761 760 759 758 758 756 752 752 754 757 759 760 761 763 764 765 766 768 770 773 776 778 779 782 778 776 785 787 785 780 776 776 773 773 776 775 775 776 777 777 779 783 780 778 777 776 784 793 796 798 797 798 796 792 789 789 791 792 792 794 795 795 795 797 799 799 800
783 781 779 777 776 774 773 772 771 770 770 770 771 770 766 765 766 767 765 763 758 756 757 756 754 756 754 753 753 753 756 759 758 759 763 763 761 766 770 771 777 781 776 774 778 776 778 785 783 776 771 769 772 773 774 777 780 779 776 778 778 776 780 779 778 777 774 781 785 783 788 791 792 796 794 792 792 792 790 792 794 794 795 794 795 797 798 798
781 779 776 775 774 772 771 770 769 769 769 770 770 767 763 765 767 767 766 762 756 754 756 755 756 756 753 753 753 752 755 758 761 760 761 762 761 765 770 771 776 778 772 772 778 783 786 783 774 769 767 770 774 775 777 779 780 780 776 778 779 775 778 780 778 775 774 781 781 779 785 787 789 794 795 791 790 789 786 787 791 792 793 793 793 795 797 798
781 777 775 774 772 771 770 768 768 768 769 769 768 765 765 767 767 766 767 764 759 755 755 756 756 755 753 753 753 753 755 756 762 763 759 761 762 762 767 771 772 772 773 776 778 785 789 777 766 767 769 775 779 778 780 781 780 779 777 779 779 774 778 784 782 778 776 777 777 779 782 781 787 795 793 789 788 788 785 784 788 790 792 792 790 792 794 798
779 776 775 772 770 770 768 767 768 768 769 769 767 767 767 768 767 767 765 762 760 755 753 754 753 752 753 752 751 753 753 752 756 759 757 760 761 761 764 765 768 773 774 774 774 778 779 767 761 768 773 775 780 781 781 783 782 778 776 778 776 773 777 781 781 780 778 778 777 781 787 784 788 798 797 789 787 790 787 786 789 789 790 791 789 790 792 794
777 775 773 771 770 768 767 768 768 768 769 767 767 768 768 767 766 767 766 762 762 757 753 754 753 752 751 751 752 750 750 753 753 754 754 755 758 761 762 760 764 774 774 772 773 773 771 764 763 773 776 776 780 781 780 781 782 781 777 775 773 775 779 778 780 782 786 789 779 779 800 800 788 794 799 793 792 792 789 789 793 794 792 790 790 790 791 792
776 774 772 770 769 768 767 767 766 769 768 765 767 767 767 767 765 766 767 762 761 758 756 756 755 754 752 751 751 747 754 761 755 751 754 755 754 757 762 762 762 768 769 769 771 769 767 766 767 773 777 778 781 781 776 776 783 783 774 770 773 777 779 779 781 783 787 791 779 774 798 807 797 797 798 796 797 794 790 792 793 794 794 791 790 790 789 791
775 773 772 770 769 768 767 765 767 768 765 765 767 767 767 766 764 766 768 768 767 759 755 756 754 754 752 750 748 751 761 762 756 755 754 756 755 753 762 766 764 766 763 768 778 771 766 771 772 773 777 780 783 781 774 773 783 781 768 769 775 776 779 779 780 783 780 780 779 774 780 796 808 807 796 793 798 797 794 795 793 791 792 790 789 788 787 788
774 772 771 770 769 769 767 767 768 765 764 766 766 766 767 764 765 765 770 779 773 756 753 755 753 752 750 749 749 753 756 753 760 763 754 756 758 755 762 764 763 767 763 769 782 772 766 774 775 774 778 780 778 773 769 772 781 775 766 771 772 773 777 774 777 781 777 782 790 780 774 793 812 804 790 791 797 800 798 793 792 790 789 789 788 786 785 785
773 771 770 769 769 768 767 768 767 764 766 767 765 767 765 763 765 763 769 780 769 754 754 754 753 753 751 750 752 754 753 753 760 762 754 756 757 755 761 759 757 766 766 767 772 769 768 770 768 771 777 776 772 767 766 773 776 768 767 772 771 773 774 773 779 779 781 795 796 780 775 795 814 802 790 798 802 803 799 790 789 789 786 787 787 787 786 784
772 770 769 769 768 768 768 767 766 766 766 765 765 765 763 764 766 769 778 778 764 756 756 753 754 755 753 756 759 757 757 759 758 757 758 758 756 756 758 756 756 764 768 767 768 769 769 766 765 771 776 774 771 770 770 771 770 766 770 775 775 777 775 776 779 776 792 806 789 775 771 785 813 811 796 805 808 801 798 793 792 788 784 785 786 787 788 786
771 770 769 768 768 768 766 765 765 766 765 765 765 763 764 765 764 774 783 770 759 760 757 756 757 754 753 758 763 760 760 763 759 759 762 760 760 761 763 763 762 767 773 773 774 773 771 771 772 774 774 772 773 774 773 770 767 770 774 777 783 787 785 787 787 788 807 807 779 772 770 776 809 816 801 805 804 796 796 796 796 793 788 785 782 781 782 782
770 770 769 768 767 767 765 764 764 764 764 764 763 761 765 768 767 773 772 763 765 765 758 758 758 754 754 757 762 762 762 766 763 761 763 763 766 768 770 770 768 776 783 778 777 777 774 775 775 776 774 772 776 776 775 774 772 773 774 778 791 800 803 807 805 802 807 795 773 769 773 786 810 811 802 804 800 795 795 793 793 794 791 787 782 778 776 778
770 769 768 768 767 766 765 763 762 763 763 762 762 759 762 773 779 773 763 762 769 764 756 757 756 753 756 761 766 763 764 770 768 765 765 763 769 772 772 771 769 776 778 773 777 781 783 781 775 777 777 772 775 777 779 779 775 776 775 778 791 801 813 820 811 805 801 786 774 769 775 797 815 809 800 801 799 795 792 790 791 791 789 788 782 777 775 775
769 768 768 767 765 764 763 762 761 761 761 761 761 760 766 778 780 770 762 763 763 759 758 757 755 756 758 764 768 764 767 775 769 766 768 765 770 775 774 774 774 771 766 767 775 777 788 794 783 780 780 775 776 777 777 774 770 771 766 768 779 782 795 807 800 799 796 783 779 779 782 797 813 813 800 794 796 794 792 791 791 789 786 785 783 779 777 775
769 768 767 766 764 764 761 760 761 759 760 760 757 761 773 780 775 768 768 766 761 760 760 757 755 762 766 767 768 764 766 775 772 767 771 772 777 782 780 781 779 774 769 772 775 772 783 792 783 779 779 776 779 777 773 773 773 768 762 769 777 769 771 780 779 777 776 779 785 786 788 791 797 804 795 790 795 794 794 794 791 792 789 786 787 784 782 780
768 767 767 766 764 763 760 760 759 759 759 757 757 768 777 778 775 771 770 767 763 762 761 759 758 763 771 771 770 768 766 771 773 773 778 780 783 788 787 785 783 780 777 775 775 776 784 790 783 779 779 777 779 777 772 777 778 771 770 776 773 762 765 776 781 772 769 785 787 782 796 802 799 802 796 792 799 798 797 798 794 795 794 790 791 789 786 785
768 767 766 765 763 762 760 758 758 759 757 753 763 777 775 773 774 771 769 767 765 763 760 764 768 767 771 773 773 772 769 771 772 775 782 783 787 793 790 786 784 782 782 779 775 774 780 789 784 779 783 779 775 777 773 772 773 774 776 772 765 767 770 775 786 786 784 794 787 777 796 808 805 810 805 798 802 803 800 800 798 798 797 796 795 793 789 786
767 765 764 764 763 761 759 758 758 756 753 756 771 779 772 771 773 770 769 767 766 764 759 764 772 769 767 772 777 774 771 775 775 776 783 785 791 797 792 789 785 781 781 780 778 774 775 789 789 780 783 781 773 777 778 771 769 773 773 765 768 782 784 780 788 794 795 796 790 786 795 802 805 813 814 811 810 807 803 801 802 802 800 799 798 797 794 789
765 763 764 765 763 761 759 759 757 752 753 762 775 777 772 773 772 769 769 769 767 765 761 763 769 768 767 770 777 777 773 776 778 779 785 789 793 796 793 792 788 783 782 778 778 777 773 786 793 782 779 780 775 778 783 780 771 770 771 767 769 776 779 779 777 778 785 787 792 803 805 806 813 816 818 821 816 810 808 805 806 806 804 802 801 800 798 793
763 762 765 766 763 762 760 757 755 754 760 769 774 775 774 773 772 769 768 768 768 767 765 766 765 768 774 773 774 777 777 778 779 781 787 790 795 797 795 795 791 786 784 778 778 780 774 779 791 786 778 781 787 789 792 791 782 776 776 775 776 773 772 777 772 767 774 778 785 801 807 808 815 815 816 820 817 813 811 809 809 809 807 805 803 802 800 796
762 763 766 765 764 763 759 759 761 762 767 772 773 775 776 775 773 771 768 767 768 767 765 766 766 768 774 775 776 778 779 781 781 783 789 792 795 797 796 796 795 790 785 781 780 783 780 778 784 787 784 789 799 798 796 796 792 786 782 780 782 779 777 788 788 774 771 775 775 784 803 815 817 815 816 817 816 814 810 809 810 810 809 808 806 803 801 799
763 766 767 764 764 761 758 764 768 767 770 776 778 777 778 777 774 773 770 768 768 768 767 769 772 773 774 776 778 778 780 785 786 786 791 795 796 799 798 796 795 791 786 786 786 787 785 781 784 792 794 796 801 798 795 796 794 789 787 785 784 781 780 789 793 782 774 778 775 776 804 826 819 814 818 817 816 814 811 810 810 809 811 810 809 806 803 802
766 768 767 765 764 760 761 770 773 772 776 780 779 778 778 778 776 774 773 772 771 772 772 775 777 778 779 779 779 780 783 791 794 792 794 799 801 802 800 795 794 790 787 788 789 788 787 786 793 803 802 798 797 795 793 793 792 790 790 789 787 786 786 786 788 785 777 780 781 783 809 830 821 814 817 814 814 814 811 811 811 811 812 811 810 808 805 804
769 769 765 764 765 760 764 773 776 778 781 780 780 781 780 780 780 779 778 778 777 776 778 781 780 779 782 780 780 783 786 793 799 797 795 800 803 803 800 796 794 792 791 793 793 791 793 793 796 805 809 808 806 803 800 795 792 793 794 794 792 790 790 788 786 786 785 788 788 786 802 821 819 815 817 814 814 815 813 813 813 813 814 813 812 810 808 807
770 770 767 765 764 763 767 772 773 778 782 781 783 783 782 784 785 782 781 782 780 778 781 785 782 780 782 781 783 786 784 788 798 800 798 800 803 803 801 799 796 794 796 800 796 792 796 798 799 803 807 811 813 811 806 798 794 796 798 797 796 793 793 792 789 790 795 797 795 794 804 819 819 817 819 817 816 818 816 814 814 815 816 816 814 812 810 810
771 774 773 770 767 767 773 773 771 776 780 781 786 785 784 788 788 783 783 785 784 782 783 785 783 782 784 784 787 791 787 786 793 798 799 801 804 804 802 800 799 799 801 802 797 794 798 802 804 806 805 807 813 813 806 798 796 802 804 802 800 796 794 792 791 794 795 796 804 810 810 815 821 820 822 822 820 820 819 817 818 818 817 817 816 814 812 811
773 778 780 778 776 775 776 776 776 778 779 781 788 790 787 789 789 786 786 787 787 786 786 787 786 787 789 789 791 796 795 793 795 799 801 803 804 804 803 800 800 803 803 800 797 796 800 806 808 810 810 809 811 811 806 802 803 807 808 806 804 800 797 796 798 801 798 798 813 820 811 811 822 824 825 827 824 822 822 821 821 821 819 818 817 816 814 813
778 783 783 784 785 782 782 783 781 781 782 783 789 791 789 790 791 792 790 788 788 787 789 793 792 790 792 792 793 799 801 801 805 807 805 806 806 805 804 803 802 803 801 799 799 798 801 808 809 809 813 812 810 811 809 807 809 810 809 809 808 804 802 804 805 805 804 806 816 820 813 814 822 824 826 829 827 825 825 822 821 821 821 820 819 818 817 815
779 783 784 784 786 786 787 787 784 783 785 787 790 792 792 792 795 795 792 791 793 790 790 797 799 795 794 794 794 801 805 805 810 812 808 808 808 805 807 808 804 802 801 801 803 802 803 811 812 809 814 816 814 814 812 812 812 812 812 811 810 807 805 807 807 805 807 812 814 815 817 820 823 825 827 827 826 826 826 823 822 822 822 822 821 821 820 819
782 785 785 784 785 787 787 787 785 786 788 790 793 796 794 794 797 797 794 794 798 797 793 797 800 796 796 796 797 804 806 802 806 811 809 810 810 808 809 810 807 805 804 805 806 804 807 816 815 809 814 819 817 814 814 814 814 814 814 813 810 810 810 809 809 808 810 814 814 816 824 829 828 825 825 826 825 825 827 827 825 824 824 823 822 822 822 822
787 789 787 785 789 792 791 789 788 787 789 791 794 797 797 797 796 798 798 795 796 798 797 798 800 798 798 800 802 805 805 801 803 806 806 807 808 808 809 809 808 809 809 809 809 806 808 815 816 812 814 818 818 817 815 814 814 816 816 814 812 811 811 810 810 810 811 815 818 819 822 827 828 824 823 824 824 825 829 829 827 826 826 825 825 824 824 823
790 790 788 786 791 794 792 790 789 789 793 796 797 798 798 799 797 798 802 801 796 797 798 798 799 800 802 807 809 807 804 803 804 805 804 805 805 805 807 808 808 809 811 812 812 810 809 813 815 814 815 817 818 818 816 816 819 819 814 811 812 812 812 813 814 814 813 812 816 818 817 821 826 824 823 823 824 827 831 830 829 828 827 827 827 826 826 825
Wind_Speed
16 16 16 16 16 15 15 16 15 14 12 12 11 11 11 12 12 12 11 10 9 8 9 10 12 11 7 6 8 11 14 9 7 9 12 11 9 9 11 21 26 30 26 20 19 18 16 14 14 15 13 9 7 5 6 5 3 2 3 2 1 5 6 7 7 6 3 8 10 9 10 10 10 8 7 8 8 10 10 8 8 7 7 11 17 25 27 26
16 16 16 16 16 15 16 16 15 13 13 12 11 12 12 12 13 12 12 10 9 8 8 9 11 12 8 6 7 11 12 8 11 14 15 11 7 10 16 23 29 32 27 22 21 19 16 14 16 15 11 7 6 6 5 4 5 3 4 1 3 5 6 6 7 7 4 6 11 8 8 9 10 10 8 9 11 11 10 10 9 11 12 15 20 25 26 26
16 16 16 16 16 16 16 16 14 14 13 13 12 12 13 13 13 13 12 11 10 8 8 9 10 11 10 7 7 10 9 9 11 9 6 6 9 15 22 26 31 33 25 22 20 17 15 14 17 15 10 7 5 6 5 4 4 3 3 1 5 5 6 7 7 7 5 4 11 9 8 9 8 8 7 8 12 11 10 10 10 12 14 16 19 24 25 24
17 17 16 16 16 17 17 16 14 14 14 13 13 13 14 14 14 14 12 11 11 8 8 8 9 10 9 8 7 7 8 10 4 3 2 3 13 20 26 28 32 31 22 19 18 15 14 15 16 13 9 7 6 6 6 5 3 1 2 1 5 4 6 8 7 5 3 3 9 9 9 8 7 6 6 9 11 8 8 9 11 14 17 18 20 23 24 23
17 17 17 17 17 17 17 16 15 15 14 14 14 14 15 15 15 14 12 11 11 9 8 7 9 9 8 8 6 5 7 6 3 6 5 3 17 25 27 30 33 26 19 19 17 14 14 14 14 11 8 6 7 6 5 5 4 3 2 2 4 4 5 6 5 4 3 5 7 8 9 8 6 6 6 9 7 5 7 8 11 15 17 19 21 22 22 22
17 17 17 17 17 18 17 16 16 16 15 14 15 15 15 15 15 15 13 11 10 9 8 8 8 7 7 7 5 4 6 2 5 4 3 7 20 26 28 31 29 21 19 20 17 14 14 14 12 10 7 6 9 7 5 7 5 4 2 1 3 4 4 5 4 4 4 6 7 6 8 7 5 5 6 7 2 5 6 8 11 14 18 20 21 21 21 20
17 16 17 17 17 18 17 17 17 17 16 16 16 16 16 16 15 15 13 11 9 8 8 8 7 6 6 5 3 5 8 2 5 2 3 11 20 26 28 29 23 18 21 21 17 15 13 14 12 9 7 6 9 8 6 7 6 4 1 2 3 4 4 4 3 4 4 7 7 6 7 8 7 5 6 5 3 4 6 9 12 15 19 20 19 18 19 19
17 16 16 17 17 18 18 18 18 17 17 17 18 17 18 18 16 15 13 10 8 7 8 8 6 5 4 4 4 6 6 2 6 5 7 14 19 25 27 23 19 19 22 20 17 15 13 14 12 9 8 6 7 8 6 7 8 6 3 1 2 3 3 3 1 4 6 6 7 7 7 8 8 4 5 6 4 5 7 10 13 15 18 18 17 18 18 18
17 17 16 16 17 17 18 18 18 18 18 18 18 19 19 19 17 15 13 10 9 8 8 7 6 4 2 4 7 6 3 5 6 10 12 17 21 25 23 19 19 20 20 18 17 16 12 12 12 8 6 4 7 8 7 7 5 4 3 3 4 4 4 3 1 5 7 5 6 8 8 8 8 6 6 7 5 7 9 11 14 15 17 16 16 17 17 17
17 17 16 17 17 17 18 18 18 19 19 19 19 20 20 20 18 16 13 10 9 9 8 6 5 5 4 6 8 4 5 6 9 14 15 18 21 23 19 17 20 19 18 17 17 16 11 10 11 5 4 4 7 8 8 5 1 1 4 5 4 5 4 2 3 6 6 7 7 8 8 7 8 6 6 8 7 8 11 12 14 14 15 15 15 16 16 16
17 17 17 17 18 18 19 19 19 19 20 20 20 20 20 20 18 15 12 10 10 9 8 6 7 7 6 7 8 1 6 6 13 15 16 18 20 20 17 18 19 17 16 15 15 15 11 8 9 5 2 4 7 7 7 4 1 1 6 5 1 2 2 2 5 8 6 7 8 7 7 7 7 6 4 9 9 9 11 13 14 14 13 14 15 15 14 15
18 17 17 18 19 19 19 19 19 20 20 20 20 20 20 18 16 14 10 8 9 9 8 7 8 6 5 8 6 2 6 7 14 15 15 16 16 15 15 18 16 14 15 13 13 14 10 8 10 7 1 4 7 5 4 3 3 4 6 4 3 2 3 5 5 8 6 6 9 8 7 7 8 6 5 10 10 10 12 12 14 13 12 13 14 13 12 14
18 18 18 18 19 19 20 20 20 20 20 20 21 19 17 15 13 12 6 7 9 8 8 8 9 5 7 5 1 3 4 7 14 16 15 13 11 10 12 15 12 10 11 10 12 12 9 9 11 7 1 4 5 2 1 4 6 5 6 5 3 5 4 5 4 7 6 6 10 8 4 5 9 8 7 10 11 12 12 12 12 12 11 12 13 12 12 14
18 18 19 19 19 19 20 20 20 20 19 19 19 16 14 13 11 7 3 8 9 8 9 9 8 5 7 1 6 2 3 9 15 17 15 13 11 10 11 11 9 8 7 7 10 10 7 8 10 7 3 5 2 0 4 7 6 5 5 4 4 4 4 4 4 8 7 6 10 8 2 4 9 9 8 9 12 12 12 12 12 11 11 12 12 12 12 14
19 20 20 20 20 20 20 20 20 19 18 18 16 12 10 9 6 1 6 10 10 10 10 9 7 5 6 3 5 3 7 11 15 17 15 14 13 11 11 11 9 8 5 4 7 8 5 7 9 8 5 4 3 5 6 6 7 5 5 5 5 2 3 3 5 8 6 7 10 9 2 5 6 9 10 9 11 12 11 12 12 12 12 12 12 12 12 13
21 22 22 22 20 20 21 20 19 17 17 15 11 7 7 6 4 6 10 11 11 12 9 6 8 7 6 4 7 5 8 9 13 16 14 13 11 10 12 11 9 9 6 4 6 7 6 7 7 6 5 5 6 7 5 6 8 7 6 6 6 4 3 4 6 8 5 6 10 8 0 4 4 6 10 10 11 12 11 11 12 12 12 12 11 11 11 12
22 22 23 23 21 20 20 19 18 16 16 11 5 5 8 9 11 12 12 11 10 10 6 3 4 7 3 5 7 7 8 8 11 15 13 10 9 12 14 11 10 10 8 5 6 8 8 7 5 4 5 6 6 6 7 8 8 7 7 4 4 5 5 5 7 8 7 6 8 6 2 2 2 4 9 10 11 13 11 11 12 11 11 11 11 11 12 12
24 24 24 23 20 19 19 18 16 15 14 6 3 9 12 12 14 12 11 10 7 5 5 4 4 5 3 7 6 7 9 9 11 15 13 10 9 13 13 9 10 12 9 6 7 9 9 7 6 6 7 7 6 6 7 8 9 10 9 5 4 5 3 4 5 8 9 8 6 5 4 4 4 4 7 10 11 12 12 10 11 11 11 11 10 11 12 12
25 25 24 22 20 19 18 17 15 15 11 2 8 9 10 10 8 5 6 7 5 4 2 4 6 3 3 10 6 8 10 10 12 14 14 13 12 13 10 9 11 13 10 7 9 10 8 6 7 7 8 9 8 8 7 4 5 7 8 5 5 5 3 5 6 7 8 8 6 6 6 7 7 6 6 9 11 11 11 10 9 10 11 11 10 10 11 13
27 25 24 22 19 18 17 15 14 13 7 5 8 4 4 4 3 5 7 7 8 7 5 2 7 4 3 8 6 8 10 10 10 13 16 15 15 13 9 9 12 11 9 9 10 10 9 7 8 8 9 11 10 8 5 2 2 3 5 4 3 5 5 6 7 7 6 7 7 9 9 7 8 8 6 7 9 11 12 12 11 10 10 10 11 11 12 13
26 24 22 20 18 17 15 14 12 9 3 6 8 4 2 2 3 0 2 7 9 8 8 5 5 7 2 1 2 4 7 9 9 12 16 16 15 13 9 10 12 9 9 10 10 9 9 8 10 10 8 9 9 6 3 3 3 5 5 5 5 4 6 7 6 6 6 6 5 8 8 7 8 7 6 7 10 11 12 13 13 13 12 10 12 13 13 12
26 23 21 19 18 16 14 13 9 3 2 6 8 6 2 5 4 3 3 5 5 5 7 5 5 6 5 4 2 3 5 9 11 12 14 15 14 10 8 10 11 9 10 11 9 9 9 9 11 11 7 7 7 6 5 5 6 6 5 5 5 4 6 7 5 5 5 5 2 5 4 6 11 9 9 11 11 10 11 13 12 13 13 11 12 13 13 12
25 21 20 19 17 15 13 9 3 2 4 4 6 3 3 4 4 2 4 6 2 5 6 6 6 6 6 4 4 6 8 10 12 12 14 15 12 8 9 11 10 9 11 12 9 9 9 9 11 11 7 8 8 6 7 6 6 6 5 6 6 6 4 4 6 5 4 4 1 1 3 5 11 10 9 11 10 8 10 13 12 12 12 11 12 12 13 14
23 20 19 17 16 14 9 2 3 4 3 3 2 2 2 3 3 4 5 5 1 4 4 3 4 5 3 3 5 9 8 6 7 12 15 15 9 7 9 10 9 9 10 13 13 10 8 6 10 11 9 10 9 8 8 7 7 8 6 7 5 5 3 0 5 4 4 4 2 3 5 5 9 10 9 8 9 9 9 11 12 11 11 12 12 11 12 14
22 19 17 16 15 11 3 4 5 3 4 5 2 3 3 5 3 5 5 4 3 4 4 3 3 2 1 3 4 7 6 6 3 10 14 12 8 7 7 7 7 8 11 14 13 9 6 6 10 12 10 9 9 8 10 9 7 8 8 9 6 2 3 2 2 3 5 6 5 5 5 5 7 8 8 7 8 9 9 10 11 10 11 12 11 12 12 13
21 18 15 14 13 6 3 4 4 3 5 5 2 2 4 6 3 5 5 4 5 5 6 5 3 3 3 4 5 6 8 6 4 8 11 6 3 5 5 6 5 6 11 12 8 6 5 8 11 12 11 10 9 8 9 9 8 7 7 9 8 6 6 5 4 5 4 3 4 4 5 4 7 5 4 7 8 8 8 8 9 10 10 11 10 11 12 13
19 16 13 10 8 4 1 2 3 5 5 3 2 3 6 5 4 5 5 5 5 3 5 4 1 2 3 3 5 6 7 9 7 7 6 1 2 6 6 7 5 4 9 8 6 5 7 10 11 11 10 10 8 8 8 9 9 4 6 6 9 9 9 8 6 6 3 0 3 5 5 3 5 5 3 6 7 6 7 6 8 9 10 11 11 12 12 13
18 15 11 7 5 4 2 2 1 4 2 4 1 4 6 3 6 5 6 4 5 1 2 4 2 1 2 4 5 3 7 11 8 6 5 2 3 7 7 8 8 8 10 8 6 7 8 9 11 11 10 8 8 8 7 10 10 2 5 4 6 7 9 9 7 6 2 2 5 7 5 3 4 6 5 6 6 6 5 4 5 8 10 11 12 13 13 13
17 14 9 4 2 3 4 3 3 1 4 3 3 5 3 5 5 5 5 2 3 1 1 3 3 4 6 7 6 5 7 5 3 6 5 4 1 5 3 4 7 10 12 10 5 7 6 3 5 8 7 4 4 4 4 9 10 1 3 4 4 4 7 7 6 5 3 5 6 7 8 5 4 5 5 6 5 4 3 2 2 3 8 10 11 11 11 12
14 11 8 4 1 1 1 3 3 1 0 2 3 4 4 6 5 6 4 2 2 4 2 1 3 6 10 9 7 7 7 6 6 7 6 5 4 3 1 2 4 8 11 10 3 6 8 5 3 2 2 4 1 1 3 8 7 2 4 6 5 5 5 6 5 4 4 6 7 7 8 7 2 4 5 6 5 5 4 3 5 4 2 6 10 12 12 12
10 8 8 4 2 0 2 2 3 2 3 3 3 4 6 5 5 5 3 2 1 5 4 3 5 8 11 11 8 8 9 8 5 6 7 6 6 6 4 3 6 6 8 8 4 7 9 7 5 3 4 4 3 5 5 8 7 5 7 7 6 6 5 5 5 4 6 7 6 7 6 5 2 3 6 6 6 6 5 5 6 7 6 3 6 10 12 12
5 8 9 8 5 1 3 2 2 5 4 3 5 5 6 5 4 1 4 2 2 3 3 4 7 9 10 11 9 8 8 7 5 4 6 7 5 5 2 0 3 5 7 8 7 8 7 5 6 5 3 3 4 8 7 7 8 7 8 8 7 7 6 7 7 6 8 4 4 7 7 3 4 6 5 7 7 7 7 7 7 7 8 7 5 6 9 10
3 7 10 11 8 4 6 6 7 7 4 5 6 5 6 4 3 3 3 2 1 3 2 4 9 11 12 11 9 9 9 7 5 5 5 5 6 6 5 7 5 4 5 8 9 8 6 5 4 4 3 3 4 5 5 7 10 9 8 9 8 7 8 9 8 7 8 5 5 5 7 6 7 6 5 7 8 9 9 8 9 8 7 7 6 5 6 10
1 5 9 12 12 10 8 6 6 6 5 6 6 6 5 2 4 1 3 6 5 5 4 6 10 11 10 9 6 5 6 6 4 4 5 5 6 5 5 8 8 7 3 7 7 6 6 6 2 1 1 3 4 3 3 2 8 10 8 7 8 6 7 8 8 8 9 7 7 6 5 6 8 6 5 7 8 10 10 10 10 9 8 7 7 7 4 5
2 1 7 10 11 12 10 4 3 4 5 6 6 3 1 4 4 1 4 6 3 7 7 7 9 11 9 7 6 3 3 4 5 5 6 5 5 5 3 6 9 8 3 4 5 3 4 6 5 4 3 4 4 3 5 4 5 7 6 7 6 3 4 4 4 6 8 7 7 6 2 3 8 9 6 7 8 10 11 12 12 11 11 9 7 9 9 5
3 3 4 6 8 11 8 3 2 4 6 6 3 3 4 4 4 4 4 3 1 5 9 10 8 8 8 6 7 6 4 4 5 5 7 7 8 8 5 5 8 8 5 2 3 3 3 6 6 3 3 4 4 2 2 3 2 4 6 6 1 3 4 3 2 3 7 7 7 7 6 8 9 9 7 6 8 10 12 13 14 14 13 11 10 10 9 9
2 3 3 7 11 12 7 2 2 5 7 4 2 5 3 3 5 6 4 4 3 1 6 8 3 2 7 7 6 8 7 6 4 3 4 5 5 7 6 5 6 7 7 4 0 1 1 5 6 3 4 4 2 1 1 2 3 2 5 4 3 2 3 4 3 5 8 7 7 8 10 9 8 6 5 4 7 11 12 13 14 15 15 13 12 11 10 10
3 4 1 10 14 12 7 3 2 6 5 1 7 6 3 5 6 6 5 5 2 5 5 5 2 2 5 8 7 7 5 4 3 3 4 3 3 6 5 4 6 7 7 6 2 1 2 3 7 3 2 4 2 3 3 3 1 3 1 1 1 4 5 5 5 6 9 9 7 9 10 7 3 3 4 5 8 10 11 12 14 15 15 14 13 13 13 11
5 5 2 11 13 9 8 4 5 6 2 4 6 5 4 6 7 7 5 4 3 4 2 4 3 1 3 5 7 5 1 2 4 4 2 2 2 5 6 3 4 7 7 7 3 1 2 2 5 4 2 3 3 2 2 3 2 1 2 2 3 4 2 4 5 4 7 9 7 8 9 5 4 4 5 7 8 9 9 10 12 14 15 14 13 13 13 12
5 3 3 10 11 7 7 6 5 2 3 5 5 4 4 6 8 9 7 4 3 4 2 4 3 4 5 5 7 5 4 5 5 3 3 3 3 5 6 5 5 6 6 5 3 1 2 3 3 6 5 4 2 3 4 4 2 2 4 4 4 3 2 2 4 3 4 6 7 8 9 5 5 4 4 6 7 8 9 9 10 12 14 14 14 14 13 13
4 2 4 9 11 8 9 5 1 3 5 6 6 6 5 4 6 8 8 7 5 5 5 6 5 6 6 5 6 5 4 6 5 4 5 3 2 4 5 7 7 7 6 2 2 3 2 2 2 5 5 3 4 5 5 5 6 4 1 1 1 3 4 5 6 5 4 5 4 6 7 6 5 4 4 6 6 7 8 9 9 12 13 13 13 14 14 14
4 1 4 10 13 9 6 2 5 3 4 5 5 6 4 3 5 7 7 7 6 6 6 7 8 7 5 5 6 6 5 5 4 4 5 5 6 6 6 7 6 6 5 1 4 5 3 1 2 4 4 5 6 4 3 3 4 3 3 3 3 3 3 5 6 5 6 4 3 2 5 6 5 5 5 5 6 7 8 9 9 11 12 12 13 14 14 14
2 3 4 9 11 8 4 4 5 3 6 5 4 6 5 4 6 7 6 7 6 5 6 6 6 6 5 5 5 6 5 5 5 5 6 8 8 7 6 7 6 5 4 1 3 3 3 1 3 5 4 4 5 3 1 1 3 2 3 4 3 2 2 4 4 3 5 5 3 5 5 6 5 5 6 6 7 7 7 9 10 10 11 11 12 13 13 14
3 3 3 8 8 6 3 3 4 4 6 5 6 7 6 7 9 9 9 9 6 4 6 7 6 6 6 5 5 5 3 2 4 5 5 6 6 5 6 7 7 5 5 4 3 3 2 1 1 3 5 5 5 5 4 3 2 1 3 4 4 3 2 4 3 4 5 1 3 7 5 7 6 6 6 7 9 9 9 10 10 10 10 10 11 12 12 14
1 1 3 7 7 3 2 3 3 5 6 6 7 7 6 7 8 9 10 10 8 6 6 6 6 6 6 5 6 5 3 2 4 3 4 6 6 5 6 7 7 6 7 7 6 4 2 2 2 3 4 4 4 3 2 2 3 3 3 4 4 4 3 3 2 5 5 1 3 4 4 9 9 8 7 8 8 9 10 10 10 10 10 10 11 11 12 13
1 1 2 4 6 5 4 4 3 4 5 5 5 5 5 7 6 7 8 8 9 8 7 6 4 4 5 5 7 7 6 6 5 5 6 6 5 5 5 6 7 8 7 6 6 4 0 2 3 4 3 2 3 4 4 2 2 3 3 4 4 5 3 3 3 4 3 3 3 3 7 13 12 8 8 7 7 8 9 10 10 9 10 10 10 11 12 12
1 1 2 2 3 4 4 3 3 2 2 1 2 3 4 5 5 5 6 5 6 6 6 6 4 2 4 5 6 7 7 8 8 7 7 6 6 6 4 5 7 6 4 3 4 3 2 2 2 4 5 6 6 6 4 3 2 3 3 2 3 4 3 3 1 2 2 2 4 5 7 12 11 7 6 7 7 7 8 9 9 9 9 10 10 11 12 13
1 1 2 2 1 2 3 3 3 3 3 3 1 1 3 5 5 5 5 5 4 3 2 4 6 5 5 4 3 6 7 8 8 6 6 6 5 5 4 5 6 4 2 2 3 3 1 2 2 3 5 6 6 5 3 2 2 2 2 2 3 3 2 3 4 4 4 1 5 8 7 8 9 7 6 6 5 6 8 8 8 9 9 10 11 12 13 14
2 3 2 2 1 3 4 3 2 3 5 4 3 2 3 5 6 5 4 3 4 4 3 4 7 6 5 3 2 5 5 3 5 5 5 5 4 2 3 4 4 3 2 3 3 2 2 2 3 3 5 6 5 4 3 1 1 2 2 2 1 1 3 4 4 5 5 6 9 10 9 8 7 5 5 5 4 5 6 6 7 8 9 10 11 12 13 14
2 2 2 1 3 4 3 2 1 2 4 2 2 3 3 4 6 6 3 3 4 5 4 6 8 7 6 6 5 6 5 4 5 7 4 4 3 1 1 2 3 3 2 2 3 2 2 1 3 3 4 4 3 2 2 1 1 3 2 2 2 2 3 3 3 4 5 6 9 10 9 7 4 3 4 4 2 3 4 5 6 7 8 9 9 11 12 13
4 3 2 0 4 2 1 2 1 1 3 2 2 4 3 4 7 7 6 6 5 6 6 8 9 7 8 9 9 9 8 7 8 8 4 2 2 2 2 2 1 1 2 2 1 1 1 2 4 4 4 4 3 1 1 1 2 4 5 5 5 4 3 3 3 2 1 5 9 8 6 6 4 4 4 3 2 3 4 5 5 6 7 8 9 10 11 11
2 1 2 3 1 1 1 1 1 1 2 3 3 3 4 6 6 5 5 6 6 8 7 6 7 6 7 10 10 8 7 7 8 7 4 4 4 3 3 3 2 2 2 2 1 1 0 2 4 4 3 3 4 1 1 2 5 5 4 5 5 3 3 3 4 2 1 1 4 4 3 6 5 3 3 2 2 3 4 4 4 5 7 8 8 9 10 10
Wind_Direction
345 344 343 341 341 340 338 336 335 336 337 335 334 335 333 330 328 327 322 313 311 309 309 313 313 312 310 327 329 327 332 316 283 247 237 256 236 221 193 175 165 157 157 156 156 155 160 168 165 172 174 175 199 186 181 196 206 230 236 231 29 38 33 7 12 36 82 124 130 153 160 146 138 138 138 145 140 131 130 123 120 115 104 109 121 134 142 147
343 342 340 339 338 337 336 335 334 336 334 333 335 334 331 328 329 326 322 315 307 304 302 305 309 308 304 314 321 326 329 290 268 259 247 256 234 197 176 173 167 160 160 160 164 165 165 165 165 174 179 176 179 173 176 178 186 225 263 223 59 31 45 19 14 47 50 119 135 156 161 151 144 143 158 157 141 141 135 128 130 120 115 118 127 138 144 148
341 339 338 337 337 336 334 334 335 335 332 331 333 332 328 326 327 324 322 315 306 300 293 296 301 304 306 305 316 327 322 286 267 252 248 240 202 178 169 174 169 162 164 166 168 170 168 164 167 176 185 184 172 181 187 181 194 209 258 38 70 19 44 44 23 52 47 118 141 152 158 152 140 145 172 160 145 153 147 143 146 134 134 138 140 144 146 151
339 337 337 336 335 334 333 334 335 334 331 331 332 330 326 325 324 322 321 314 305 295 283 286 291 300 310 302 316 332 299 276 256 109 6 219 181 171 169 172 168 165 169 168 166 171 169 164 172 185 192 186 168 191 199 185 205 206 257 20 63 12 28 48 28 50 70 151 148 147 154 148 143 153 170 161 153 159 155 155 154 144 145 148 149 149 151 154
339 337 337 335 334 333 331 332 334 333 332 332 331 329 327 325 322 321 318 311 303 291 277 272 283 298 306 304 324 325 274 261 93 58 356 192 172 168 169 171 166 167 172 167 165 170 169 169 179 191 199 187 166 191 210 189 222 258 250 6 32 0 15 38 35 59 99 146 146 154 155 140 148 156 167 177 163 137 145 151 149 146 148 153 153 151 154 157
338 338 336 335 333 332 331 332 333 332 331 332 330 329 327 324 321 319 315 308 298 286 272 264 277 291 297 308 322 279 263 300 64 29 8 160 168 167 170 168 162 168 172 165 165 172 174 176 182 189 201 190 176 190 193 187 217 243 196 54 356 359 2 10 47 83 116 145 150 163 145 129 159 159 172 193 83 71 122 138 144 143 147 153 154 154 157 159
337 338 336 335 333 331 332 334 334 332 331 331 329 329 327 323 320 314 311 304 290 280 266 263 270 277 293 309 303 246 251 326 68 75 127 157 166 166 168 164 161 171 173 168 169 175 177 181 186 188 195 186 187 190 167 180 212 245 221 72 356 358 346 347 52 107 129 145 151 157 142 147 170 153 168 183 79 85 123 135 140 141 148 153 155 159 160 160
336 336 336 335 333 331 333 335 334 332 331 331 330 329 325 321 317 312 308 296 280 267 258 264 260 260 283 282 270 237 224 67 95 141 149 154 160 163 163 161 169 175 175 176 173 175 178 186 188 183 195 185 185 187 163 184 204 227 255 8 319 324 333 338 48 129 130 140 149 150 153 162 167 158 174 167 126 140 140 138 140 141 150 155 158 162 160 161
335 335 335 334 333 332 334 335 333 332 332 332 331 328 323 320 317 311 303 288 266 253 250 256 243 232 243 251 267 245 157 76 128 155 148 147 150 157 160 165 176 174 176 179 176 179 180 190 191 188 216 186 173 184 183 202 195 199 256 313 302 317 335 315 191 143 135 139 155 156 158 162 164 173 177 157 142 154 149 143 143 147 154 158 162 163 161 163
334 334 333 334 334 334 335 334 332 333 332 333 332 327 323 320 316 309 297 275 254 242 235 239 219 202 219 243 256 234 92 93 151 153 148 146 146 157 165 171 174 176 178 176 179 184 184 197 191 196 267 200 182 189 190 213 160 142 269 287 293 326 337 271 164 145 139 139 162 168 155 155 167 189 180 152 157 160 153 149 148 153 156 160 164 163 164 166
333 332 332 334 336 336 335 334 333 333 333 334 332 327 323 321 315 306 289 261 242 230 221 216 198 197 228 252 255 220 81 128 154 152 156 151 152 161 169 172 175 179 176 175 184 187 191 197 185 199 250 175 177 189 195 224 327 266 272 270 234 338 28 133 149 147 148 144 160 167 149 158 174 203 189 148 159 164 158 157 156 159 157 161 164 162 167 169
332 332 334 335 337 336 335 334 333 333 334 334 332 328 324 322 315 307 289 245 224 214 205 197 188 194 236 253 257 64 77 147 156 153 161 157 158 162 167 172 178 183 177 179 186 187 196 190 192 210 177 161 175 177 190 204 260 257 263 258 150 150 108 116 150 153 164 156 156 165 161 174 184 198 178 149 159 165 166 166 161 163 160 161 164 163 170 170
332 333 335 338 338 337 335 334 334 335 335 335 334 329 326 325 315 308 286 215 199 195 190 185 178 195 246 249 154 104 93 150 156 153 159 159 155 154 162 171 179 189 186 191 184 182 200 192 203 215 157 216 188 117 176 195 245 244 232 250 174 181 135 111 158 163 172 151 152 176 183 182 184 185 167 153 163 167 171 173 166 166 163 165 165 166 172 171
331 333 336 339 339 337 335 333 335 336 336 337 334 331 331 327 314 306 231 183 177 177 172 170 173 208 246 172 85 142 142 144 159 156 159 160 150 148 158 168 175 180 186 199 180 174 197 195 210 224 222 248 246 48 231 202 222 219 194 219 216 204 128 118 177 172 170 145 165 197 201 158 172 170 160 158 171 175 177 175 172 170 167 170 169 171 173 172
336 336 338 340 339 338 335 332 335 336 336 339 335 335 339 336 328 213 161 160 159 158 153 161 183 223 243 156 99 133 140 151 171 167 163 161 153 153 163 171 173 170 170 182 176 171 186 188 205 220 202 229 259 230 221 194 198 209 195 193 201 199 100 156 191 190 183 144 183 217 169 131 156 159 160 166 178 184 186 178 176 174 171 174 173 175 175 173
341 339 339 339 337 336 333 331 335 334 336 340 337 349 10 21 64 131 140 143 145 143 148 167 193 234 269 133 122 146 156 163 175 172 170 168 163 154 155 162 164 170 171 165 178 175 184 196 204 224 204 201 225 220 208 195 194 203 212 201 187 166 149 177 174 193 199 138 183 226 346 109 129 152 159 169 180 187 194 183 180 180 176 177 176 178 177 173
342 340 337 335 334 334 329 330 333 332 336 341 348 54 65 78 101 117 120 128 132 139 179 239 203 234 280 111 139 172 167 151 161 169 172 176 170 150 149 155 158 167 165 154 176 178 183 199 197 208 220 215 213 214 211 201 190 192 207 204 171 168 176 167 154 173 185 165 180 209 245 109 98 158 164 169 179 187 196 187 183 186 180 178 179 180 178 175
340 337 334 332 331 330 326 329 332 329 336 344 121 96 89 96 102 107 115 125 132 157 222 256 221 237 191 156 162 146 140 137 155 168 166 164 158 152 154 156 154 160 162 157 171 181 182 190 196 190 202 212 206 213 214 203 199 194 198 196 163 182 187 132 126 154 179 191 171 172 213 189 150 159 164 169 179 190 196 190 185 189 185 180 182 183 180 179
337 334 332 330 328 327 326 329 328 327 337 75 132 104 101 105 105 131 153 155 183 206 242 185 199 275 134 153 137 108 122 132 147 160 163 159 152 152 155 156 157 162 170 169 171 184 183 182 200 198 196 201 202 212 206 203 229 200 189 196 159 164 147 97 104 131 182 199 162 174 211 197 176 166 166 171 180 194 197 191 189 192 191 183 183 187 183 183
336 333 330 328 328 327 327 328 325 326 337 143 148 134 148 162 175 181 179 203 234 266 310 212 210 273 114 130 117 115 131 142 154 159 162 162 155 151 149 157 165 173 183 173 166 180 190 190 194 199 200 192 193 210 197 144 276 219 181 179 154 153 128 109 111 125 197 217 167 184 203 188 176 170 175 177 182 198 198 192 190 192 196 188 185 187 185 187
337 333 330 329 329 328 328 328 322 322 337 157 179 229 275 315 294 101 173 226 230 251 276 259 250 272 271 94 104 140 155 168 168 157 161 166 164 156 150 163 171 184 193 170 153 167 193 206 196 195 195 177 177 197 190 157 196 224 207 182 181 179 122 105 105 123 199 234 165 175 201 176 156 158 190 201 195 201 199 194 192 191 196 193 189 188 184 185
338 333 332 330 329 330 329 325 316 317 95 156 200 237 12 25 342 345 313 259 208 215 250 243 259 269 255 255 249 235 207 168 151 151 162 175 183 176 160 175 182 182 181 170 160 167 195 214 192 183 176 159 165 174 188 196 200 212 212 202 192 159 124 119 116 123 183 236 150 147 204 166 146 159 201 210 203 208 204 195 193 193 195 195 192 188 183 181
339 336 334 331 332 334 329 322 318 126 122 177 217 226 45 18 330 274 262 275 200 177 216 225 234 225 208 206 187 212 204 163 152 156 168 185 197 186 167 180 190 178 173 179 183 177 194 207 178 167 166 172 178 177 191 203 207 213 208 214 194 155 166 153 127 127 173 251 327 122 230 159 141 162 204 210 202 212 211 197 195 196 198 202 196 188 185 181
343 340 337 336 336 335 332 2 115 131 152 220 226 68 26 332 302 247 251 276 228 164 189 220 237 224 196 144 171 205 192 150 155 156 171 192 183 164 178 185 186 179 180 192 196 193 199 184 159 164 176 187 191 187 201 211 208 212 216 229 205 156 207 204 105 136 189 218 247 256 234 155 142 171 195 204 200 206 208 199 198 196 200 207 201 193 191 186
347 344 341 340 339 341 8 119 129 147 174 188 143 65 333 320 276 240 265 261 183 142 156 179 214 218 119 139 189 209 165 114 110 147 170 196 179 167 181 183 192 186 183 192 199 203 195 152 156 172 177 192 205 198 208 220 215 210 210 226 239 190 210 209 131 196 211 190 189 243 236 142 134 165 174 179 193 200 198 197 200 200 205 209 203 197 195 190
349 345 342 340 345 5 127 130 115 157 193 177 114 24 322 321 253 218 268 248 165 134 157 174 189 160 154 176 172 188 172 128 71 138 166 204 221 202 176 166 209 195 176 186 207 210 169 153 175 183 179 191 210 213 208 213 228 218 188 201 228 239 228 219 215 228 233 169 152 241 253 145 111 93 130 161 178 189 188 193 198 200 207 210 209 203 196 193
347 343 341 339 352 21 124 72 99 181 198 138 88 331 323 310 213 193 253 224 147 131 162 152 167 156 142 160 173 199 173 137 118 128 148 216 241 229 203 168 188 174 163 183 207 195 157 161 179 185 190 197 207 216 199 200 230 216 127 171 216 226 228 222 221 233 254 25 167 211 244 201 112 74 95 150 156 160 165 186 200 202 209 212 214 210 202 198
345 342 342 343 0 15 60 85 197 202 118 65 12 321 328 264 191 210 253 194 120 133 168 117 89 174 147 159 186 193 118 134 152 115 108 153 208 232 216 178 183 164 165 194 184 156 163 180 181 180 194 203 208 214 188 194 226 209 100 180 215 220 229 222 222 232 238 256 217 189 207 217 116 102 106 114 112 110 124 164 192 208 213 213 217 213 209 205
344 344 349 352 8 32 91 127 250 228 68 19 315 337 314 209 203 244 248 152 112 182 143 115 144 164 168 160 154 144 111 118 142 109 141 174 175 251 233 170 183 156 166 213 212 142 150 175 181 190 205 211 205 206 177 200 220 174 116 191 192 201 223 217 224 228 201 242 233 180 191 210 101 90 89 80 72 63 48 46 74 222 217 211 218 218 216 216
346 353 4 8 48 49 119 165 201 215 8 306 326 327 249 205 227 239 194 107 110 148 137 180 162 157 166 152 122 129 116 83 94 121 147 151 145 196 31 77 188 157 168 208 228 115 116 99 107 176 289 335 323 162 198 222 226 169 169 185 177 180 196 201 219 229 207 229 224 178 194 218 167 75 67 60 31 13 0 11 23 353 261 212 215 214 213 216
355 18 26 25 68 191 250 165 146 228 271 303 309 266 229 211 242 236 140 86 91 137 156 167 151 167 171 151 127 125 110 87 106 144 146 141 150 159 149 176 187 164 168 184 163 126 138 147 129 90 16 345 246 199 198 222 223 206 198 188 178 170 174 192 193 212 228 225 202 166 179 222 194 90 69 56 29 14 10 9 11 1 353 320 238 218 211 212
21 43 38 29 34 342 295 317 265 256 259 285 277 244 225 211 212 130 102 162 201 125 149 146 145 163 151 128 117 121 111 92 90 113 129 141 132 111 96 170 179 173 172 170 165 154 148 142 127 124 81 23 236 201 177 193 205 208 200 188 184 174 176 196 188 200 223 211 157 164 179 177 93 88 70 52 37 26 22 15 14 8 359 349 316 253 220 211
54 51 35 22 16 351 310 296 270 256 251 257 251 236 238 211 138 67 78 137 82 68 100 141 149 153 138 120 106 100 97 89 93 104 108 126 127 105 63 39 4 274 191 158 165 167 148 130 136 165 146 20 306 220 175 179 192 200 201 190 193 185 181 194 190 198 216 196 140 159 189 171 117 93 69 61 46 33 32 26 20 16 11 6 350 316 237 211
104 54 24 10 5 356 332 301 265 249 235 239 234 226 234 149 100 66 72 71 74 99 123 143 144 142 131 120 110 95 87 80 86 131 141 139 132 122 85 53 13 324 228 163 163 176 166 149 131 26 59 8 340 315 328 267 190 193 204 205 210 208 196 198 195 195 202 186 152 159 197 183 143 113 76 76 62 45 42 37 32 27 23 22 13 6 346 220
238 336 2 3 359 352 341 314 248 227 215 232 230 206 177 96 81 46 65 55 82 124 138 157 149 136 118 103 108 86 39 84 95 103 110 104 89 77 54 35 17 353 283 191 158 169 163 119 77 48 37 0 359 359 335 310 197 181 203 223 224 237 234 217 207 203 200 184 163 167 163 105 126 128 108 85 67 52 45 41 40 36 29 26 25 21 14 1
250 258 332 357 349 345 342 315 233 210 218 240 217 91 62 61 26 2 28 358 339 126 150 163 157 145 134 123 123 103 61 107 130 108 88 85 73 53 35 33 19 0 335 271 162 170 166 105 86 107 109 37 10 15 353 315 251 175 191 208 162 13 298 252 205 209 213 198 175 161 119 105 131 132 106 85 64 50 42 38 38 37 33 28 26 21 10 5
251 249 321 0 354 351 349 326 228 215 235 260 91 77 48 47 15 353 352 331 320 240 186 160 145 171 144 135 124 120 125 127 135 136 110 106 73 31 21 45 25 9 1 335 187 151 224 120 101 108 113 82 30 331 76 4 316 237 193 172 98 47 280 261 222 192 205 204 181 167 149 144 167 152 98 71 49 40 37 36 34 33 32 29 27 20 11 5
278 243 336 12 1 355 358 0 255 240 243 105 91 85 46 44 23 359 346 330 298 261 233 148 104 291 150 138 120 117 156 168 141 127 109 108 77 14 2 41 28 20 6 320 271 68 306 134 116 98 98 113 166 228 177 128 10 321 327 80 199 219 206 215 228 200 201 207 186 170 160 145 152 121 70 38 29 28 29 33 31 29 27 26 25 20 14 11
268 233 87 19 2 3 14 353 260 252 235 98 95 91 60 54 38 22 5 332 305 291 286 111 102 31 103 127 124 104 88 136 131 132 85 61 83 29 6 12 9 17 7 328 317 63 290 212 134 116 119 161 185 247 207 134 122 215 239 212 237 266 227 206 225 216 212 211 186 175 177 146 71 57 49 38 32 26 27 33 31 28 27 25 24 21 16 14
275 248 80 18 357 356 345 305 260 262 86 80 73 76 64 56 49 38 28 9 343 337 14 96 123 122 98 100 117 98 63 96 109 103 77 72 96 71 34 7 346 356 354 334 3 25 267 246 144 129 156 197 176 37 22 28 38 201 214 202 195 240 268 243 231 240 257 232 195 190 191 145 77 48 45 50 44 32 33 37 35 32 29 27 25 23 20 15
277 263 80 13 349 322 296 284 44 55 87 86 67 68 56 29 37 42 37 40 46 31 42 71 85 106 112 101 106 104 95 103 98 89 97 79 59 73 41 2 339 334 323 299 51 17 303 246 162 143 156 158 88 52 26 13 1 349 323 297 248 245 235 222 214 211 257 276 246 204 181 127 79 47 50 58 52 45 42 40 42 40 33 30 26 23 25 20
274 348 47 358 342 311 283 89 74 44 79 82 59 56 46 6 17 32 33 39 57 54 51 63 63 72 92 86 95 114 103 89 79 80 94 73 48 47 25 353 329 324 324 63 79 18 329 290 106 111 97 90 96 73 16 5 343 341 19 13 320 284 258 240 224 204 213 244 289 235 151 113 86 66 71 76 66 57 51 43 45 47 39 33 28 24 25 24
2 41 30 357 342 305 283 96 95 73 75 83 75 60 51 37 35 37 34 31 41 52 56 61 54 53 69 76 100 116 94 67 70 80 94 90 66 44 19 356 334 321 325 63 94 17 307 269 105 106 99 105 127 134 52 321 271 250 57 26 334 316 311 294 317 308 228 200 226 227 165 124 111 90 82 91 82 67 61 52 45 47 42 33 29 26 25 25
45 41 35 15 354 293 273 94 105 97 92 104 103 84 68 50 37 37 44 40 36 54 67 62 49 57 73 80 97 99 68 63 92 84 90 99 79 47 25 8 355 354 9 18 18 353 326 290 176 165 160 161 173 183 184 196 224 165 68 35 9 11 331 283 301 286 248 230 299 251 187 127 123 112 91 91 85 71 66 61 51 47 41 30 27 28 28 27
21 87 60 37 30 13 24 49 83 107 111 109 97 91 93 75 47 40 52 53 44 49 74 70 58 76 92 92 95 86 45 64 110 115 102 102 98 66 34 20 17 31 39 20 343 320 339 21 325 253 211 193 189 184 178 167 153 115 63 46 29 18 342 293 249 227 224 132 342 282 148 125 129 120 96 86 83 73 66 62 55 47 40 35 30 28 31 31
280 87 74 66 62 69 67 42 45 95 110 110 90 77 89 98 80 46 43 55 54 52 69 75 65 89 102 101 100 90 71 75 105 137 129 112 103 74 37 31 41 40 34 15 342 316 97 67 15 345 346 20 67 67 32 15 149 131 81 58 34 19 353 302 253 228 216 156 102 59 117 139 140 124 100 83 76 74 66 57 53 44 38 39 35 31 35 35
314 21 33 61 81 91 100 67 39 59 65 57 75 68 80 104 106 64 37 49 61 55 61 63 49 76 105 108 102 89 82 89 100 116 118 107 104 96 62 44 52 35 359 355 351 309 201 123 70 55 55 55 64 69 50 28 89 103 89 70 35 24 6 328 320 41 349 219 145 104 138 151 138 121 107 86 72 69 63 55 51 42 36 39 36 35 37 34
9 63 29 327 324 71 82 49 33 62 76 71 83 91 90 98 98 78 65 70 68 33 37 75 67 66 79 83 100 108 107 104 103 109 115 112 119 124 102 68 60 37 335 32 26 313 254 118 107 106 94 80 70 71 69 67 94 99 79 69 48 31 38 57 68 53 8 347 123 127 152 149 130 129 116 88 69 60 57 54 53 48 39 38 35 35 35 32
82 104 68 309 324 59 64 39 16 71 86 84 86 80 82 93 91 78 59 72 75 42 29 99 90 78 79 66 92 124 115 106 119 124 121 119 124 135 119 94 74 58 36 73 65 334 312 98 124 138 117 97 79 81 85 77 145 159 132 112 94 60 78 83 78 74 72 89 111 127 134 122 114 119 109 94 74 59 53 46 51 52 43 38 37 35 33 31
50 72 65 110 97 72 68 60 351 103 98 89 98 90 79 87 98 95 49 25 79 81 75 100 98 89 93 94 102 104 72 47 116 130 135 137 136 124 97 80 67 66 51 65 78 333 303 133 152 181 151 120 97 103 119 124 195 180 158 161 175 159 143 142 122 108 110 119 124 129 131 128 130 130 119 116 92 65 51 34 41 47 41 37 37 36 32 29
20 29 331 324 94 54 16 69 341 171 115 102 113 116 116 99 98 101 74 39 58 95 98 102 103 96 95 95 92 89 76 68 95 111 112 95 88 80 70 49 30 69 73 72 69 323 289 150 165 217 209 141 125 160 167 162 210 209 193 180 185 186 169 150 136 123 122 139 146 157 156 136 141 165 158 146 112 68 45 30 32 38 36 33 30 32 30 25
2 60 302 280 111 58 305 111 231 241 87 68 83 108 118 113 107 103 86 66 67 83 85 94 107 108 102 97 86 76 74 71 79 90 84 61 70 82 79 76 52 18 54 87 74 15 200 164 167 215 229 140 134 187 248 216 219 213 177 159 171 176 147 130 130 106 32 162 176 187 144 112 118 165 181 155 106 60 42 28 21 24 29 28 26 27 23 19